PulseSat

PulseSat

GORIZONT 20 [-]

Last updated on Oct. 22, 2018, 12:08 a.m. UTC

1 20659U 90054A   18294.06681050 -.00000142  00000-0  00000+0 0  9997
2 20659  15.0048 359.3486 0003411 191.1470 302.8442  1.00224072103658
UTC
Height (km)
Latitude
Longitude
Inclination
Orbital Period

Next 30 passes for location: Hong Kong

Rise time Rise Azimuth (degrees) Set time Set Azimuth (degrees) Duration Max altitude (degrees)

No matching passes for this satellites

PulseSat

PulseSat is the new satellites software and hardware trackering solution by Pulsely.
Satellite Two Line Element Set source: US Air Force Space Command

Download PulseSat for iOS
© 2017 Pulsely Limited